Wasilla, AK

5:21 AM AKDT on October 17, 2017 (GMT -0800)
Wasilla

Weather History for PAWS - February, 2013

Change the Weather History Date:

Saturday, February 16, 2013

  Actual Average Record
Temperature  
Mean Temperature 20 °F -  
Max Temperature 23 °F 25 °F 46 °F (2015)
Min Temperature 17 °F 5 °F -26 °F (1964)
Degree Days  
Heating Degree Days 45    
Moisture  
Dew Point 13 °F    
Average Humidity 74    
Maximum Humidity 86    
Minimum Humidity 59    
Precipitation  
Precipitation 0.00 in - - ()
Sea Level Pressure  
Sea Level Pressure 29.93 in    
Wind  
Wind Speed 2 mph (North)    
Max Wind Speed 8 mph    
Max Gust Speed -    
Visibility 10 miles    
Events      
Averages and records for this station are not official NWS values.
T = Trace of Precipitation, MM = Missing Value Source: NWS Daily Summary

Daily Weather History Graph

Daily Weather History Graph

Search for Another Location

Airport or City:

Trip Planner

Search our weather history database for the weather conditions in past years. The results will help you decide how hot, cold, wet, or windy it might be!

Date:

Astronomy

Feb. 16, 2013 Rise Set
Actual Time 8:37 AM AKST 5:47 PM AKST
Civil Twilight 7:51 AM AKST 6:33 PM AKST
Nautical Twilight 7:00 AM AKST 7:25 PM AKST
Astronomical Twilight 6:10 AM AKST 8:15 PM AKST
Moon 9:48 AM AKST (2/16) 2:01 AM AKST (2/16)
Length of Visible Light 10h 42m
Length of Day
9h 10m
Waxing Crescent, 41% of the Moon is Illuminated
Feb 16
Waxing Crescent
Feb 17
First Quarter
Feb 25
Full
Mar 4
Last Quarter
Mar 11
New

Hourly Weather History & Observations

Time (AKST) Temp. Windchill Dew Point Humidity Pressure Visibility Wind Dir Wind Speed Gust Speed Precip Events Conditions
12:16 AM 19.4 °F - 12.2 °F 74% 29.90 in 10.0 mi Calm Calm - N/A   Unknown
12:36 AM 19.4 °F - 14.0 °F 80% 29.91 in 10.0 mi Calm Calm - N/A   Unknown
12:56 AM 19.4 °F - 15.8 °F 86% 29.92 in 10.0 mi Calm Calm - N/A   Unknown
1:16 AM 19.4 °F - 14.0 °F 80% 29.93 in 10.0 mi Calm Calm - N/A   Unknown
1:36 AM 19.4 °F 11.5 °F 12.2 °F 74% 29.93 in 10.0 mi North 5.8 mph - N/A   Unknown
1:56 AM 19.4 °F - 12.2 °F 74% 29.93 in 10.0 mi Calm Calm - N/A   Unknown
2:16 AM 19.4 °F - 12.2 °F 74% 29.94 in 10.0 mi Calm Calm - N/A   Unknown
2:36 AM 19.4 °F - 14.0 °F 80% 29.94 in 10.0 mi Calm Calm - N/A   Unknown
2:56 AM 19.4 °F - 15.8 °F 86% 29.95 in 10.0 mi Calm Calm - N/A   Unknown
3:16 AM 19.4 °F - 14.0 °F 80% 29.95 in 10.0 mi Calm Calm - N/A   Unknown
3:36 AM 21.2 °F - 14.0 °F 74% 29.96 in 10.0 mi Calm Calm - N/A   Unknown
3:56 AM 21.2 °F 13.6 °F 14.0 °F 74% 29.97 in 10.0 mi WSW 5.8 mph - N/A   Unknown
4:16 AM 21.2 °F 14.9 °F 14.0 °F 74% 29.97 in 10.0 mi WSW 4.6 mph - N/A   Unknown
4:36 AM 21.2 °F 14.9 °F 14.0 °F 74% 29.97 in 10.0 mi WSW 4.6 mph - N/A   Unknown
4:56 AM 21.2 °F - 14.0 °F 74% 29.97 in 10.0 mi Calm Calm - N/A   Unknown
5:16 AM 21.2 °F - 14.0 °F 74% 29.97 in 10.0 mi Calm Calm - N/A   Unknown
5:36 AM 19.4 °F - 14.0 °F 80% 29.97 in 10.0 mi Calm Calm - N/A   Unknown
5:56 AM 19.4 °F - 14.0 °F 80% 29.97 in 10.0 mi Calm Calm - N/A   Unknown
6:16 AM 19.4 °F - 14.0 °F 80% 29.97 in 10.0 mi Calm Calm - N/A   Unknown
6:36 AM 19.4 °F - 12.2 °F 74% 29.98 in 10.0 mi Calm Calm - N/A   Unknown
6:56 AM 19.4 °F - 14.0 °F 80% 29.98 in 10.0 mi Calm Calm - N/A   Unknown
7:16 AM 17.6 °F - 12.2 °F 79% 29.99 in 10.0 mi Calm Calm - N/A   Unknown
7:36 AM 19.4 °F - 14.0 °F 80% 29.99 in 10.0 mi Calm Calm - N/A   Unknown
7:56 AM 17.6 °F - 14.0 °F 86% 29.99 in 10.0 mi Calm Calm - N/A   Unknown
8:16 AM 17.6 °F - 12.2 °F 79% 29.99 in 10.0 mi Calm Calm - N/A   Unknown
8:36 AM 19.4 °F - 12.2 °F 74% 29.99 in 10.0 mi Calm Calm - N/A   Unknown
8:56 AM 19.4 °F - 12.2 °F 74% 29.99 in 10.0 mi Calm Calm - N/A   Unknown
9:16 AM 19.4 °F - 12.2 °F 74% 29.99 in 10.0 mi Calm Calm - N/A   Unknown
9:36 AM 19.4 °F - 12.2 °F 74% 29.99 in 10.0 mi Calm Calm - N/A   Unknown
9:56 AM 19.4 °F - 12.2 °F 74% 29.99 in 10.0 mi Calm Calm - N/A   Unknown
10:16 AM 19.4 °F - 12.2 °F 74% 29.99 in 10.0 mi Calm Calm - N/A   Unknown
10:36 AM 19.4 °F - 12.2 °F 74% 29.99 in 10.0 mi Calm Calm - N/A   Unknown
10:56 AM 19.4 °F 14.3 °F 12.2 °F 74% 29.99 in 10.0 mi ENE 3.5 mph - N/A   Unknown
11:16 AM 19.4 °F - 12.2 °F 74% 29.99 in 10.0 mi Calm Calm - N/A   Unknown
11:36 AM 21.2 °F 16.4 °F 12.2 °F 68% 30.00 in 10.0 mi East 3.5 mph - N/A   Unknown
11:56 AM 21.2 °F - 12.2 °F 68% 30.00 in 10.0 mi Calm Calm - N/A   Unknown
12:16 PM 21.2 °F 14.9 °F 12.2 °F 68% 30.00 in 10.0 mi ENE 4.6 mph - N/A   Unknown
12:36 PM 21.2 °F 16.4 °F 12.2 °F 68% 30.00 in 10.0 mi East 3.5 mph - N/A   Unknown
12:56 PM 23.0 °F 14.7 °F 14.0 °F 68% 29.99 in 10.0 mi ENE 6.9 mph - N/A   Unknown
1:16 PM 23.0 °F 13.9 °F 14.0 °F 68% 29.98 in 10.0 mi East 8.1 mph - N/A   Unknown
1:36 PM 23.0 °F 17.0 °F 12.2 °F 63% 29.98 in 10.0 mi East 4.6 mph - N/A   Unknown
1:56 PM 23.0 °F 15.8 °F 14.0 °F 68% 29.97 in 10.0 mi ESE 5.8 mph - N/A   Unknown
2:16 PM 23.0 °F 17.0 °F 12.2 °F 63% 29.97 in 10.0 mi ENE 4.6 mph - N/A   Unknown
2:36 PM 23.0 °F 14.7 °F 12.2 °F 63% 29.96 in 10.0 mi NE 6.9 mph - N/A   Unknown
2:56 PM 23.0 °F 14.7 °F 12.2 °F 63% 29.96 in 10.0 mi ENE 6.9 mph - N/A   Unknown
3:16 PM 23.0 °F 15.8 °F 10.4 °F 59% 29.95 in 10.0 mi ENE 5.8 mph - N/A   Unknown
3:36 PM 23.0 °F - 12.2 °F 63% 29.94 in 10.0 mi Calm Calm - N/A   Unknown
3:56 PM 23.0 °F - 12.2 °F 63% 29.94 in 10.0 mi Calm Calm - N/A   Unknown
4:16 PM 23.0 °F - 12.2 °F 63% 29.93 in 10.0 mi Calm Calm - N/A   Unknown
4:36 PM 21.2 °F 13.6 °F 10.4 °F 63% 29.92 in 10.0 mi NE 5.8 mph - N/A   Unknown
4:56 PM 21.2 °F 13.6 °F 12.2 °F 68% 29.92 in 10.0 mi NE 5.8 mph - N/A   Unknown
5:16 PM 21.2 °F 14.9 °F 10.4 °F 63% 29.92 in 10.0 mi NE 4.6 mph - N/A   Unknown
5:36 PM 21.2 °F 12.6 °F 12.2 °F 68% 29.91 in 10.0 mi NNE 6.9 mph - N/A   Unknown
5:56 PM 21.2 °F 13.6 °F 12.2 °F 68% 29.90 in 10.0 mi NNE 5.8 mph - N/A   Unknown
6:16 PM 21.2 °F - 12.2 °F 68% 29.89 in 10.0 mi Calm Calm - N/A   Unknown
6:36 PM 21.2 °F 16.4 °F 12.2 °F 68% 29.89 in 10.0 mi WNW 3.5 mph - N/A   Unknown
6:56 PM 21.2 °F - 12.2 °F 68% 29.89 in 10.0 mi Calm Calm - N/A   Unknown
7:16 PM 19.4 °F 11.5 °F 15.8 °F 86% 29.89 in 10.0 mi NW 5.8 mph - N/A   Unknown
7:36 PM 21.2 °F 14.9 °F 12.2 °F 68% 29.87 in 10.0 mi North 4.6 mph - N/A   Unknown
7:56 PM 21.2 °F 14.9 °F 12.2 °F 68% 29.87 in 10.0 mi North 4.6 mph - N/A   Unknown
8:16 PM 21.2 °F 14.9 °F 12.2 °F 68% 29.86 in 10.0 mi North 4.6 mph - N/A   Unknown
8:36 PM 21.2 °F 16.4 °F 14.0 °F 74% 29.85 in 10.0 mi NW 3.5 mph - N/A   Unknown
8:56 PM 19.4 °F 12.8 °F 15.8 °F 86% 29.84 in 10.0 mi NW 4.6 mph - N/A   Unknown
9:16 PM 19.4 °F 12.8 °F 15.8 °F 86% 29.83 in 10.0 mi NW 4.6 mph - N/A   Unknown
9:36 PM 19.4 °F 11.5 °F 15.8 °F 86% 29.82 in 10.0 mi WNW 5.8 mph - N/A   Unknown
9:56 PM 19.4 °F 11.5 °F 15.8 °F 86% 29.82 in 10.0 mi NW 5.8 mph - N/A   Unknown
10:16 PM 19.4 °F 12.8 °F 15.8 °F 86% 29.81 in 10.0 mi NW 4.6 mph - N/A   Unknown
10:36 PM 19.4 °F 12.8 °F 14.0 °F 80% 29.81 in 10.0 mi NW 4.6 mph - N/A   Unknown
10:56 PM 19.4 °F 11.5 °F 15.8 °F 86% 29.80 in 10.0 mi NW 5.8 mph - N/A   Unknown
11:16 PM 19.4 °F 11.5 °F 15.8 °F 86% 29.79 in 10.0 mi NW 5.8 mph - N/A   Unknown
11:36 PM 19.4 °F 14.3 °F 15.8 °F 86% 29.78 in 10.0 mi NNW 3.5 mph - N/A   Unknown
11:56 PM 19.4 °F 11.5 °F 15.8 °F 86% 29.77 in 10.0 mi NNW 5.8 mph - N/A   Unknown